Location: Bakhuizen
(52.8696°N, 5.4575°E)
Time: 23:13:38
(UTC+00:00)

IGS 5A - Pass Details

Date: 11 May 2021
Orbit: 583 x 588 km, 97.6° (Epoch: 06 May)

Event Time Altitude Azimuth Distance (km) Brightness Sun altitude
Exits shadow 20:24:31 - 176° (S) 2,491 6.2 -8.0°
Reaches altitude 10° 20:25:57 10° 179° (S) 1,903 5.6 -8.2°
Maximum altitude 20:30:02 59° 259° (W) 683 4.0 -8.6°
Drops below altitude 10° 20:34:09 10° 339° (NNW) 1,920 7.3 -9.0°
Sets 20:36:21 0° 344° (NNW) 2,826 8.2 -9.3°
